GORIZONT 22 [-]

Last updated on Jan. 16, 2021, 6:28 a.m. UTC

1 20953U 90102A   21015.67122887 -.00000015  00000-0  00000-0 0  9998
2 20953  14.4707 352.6492 0005999 353.8464  12.8652  1.00285799110535
UTC
Height (km)
Latitude
Longitude
Inclination
Orbital Period
UTC large
Height (km)
Speed (km/s)
/
Latitude / Longitude
Inclination (degrees)
Orbital Period (minutes)
Azimuth
Elevation
Range (km)
Doppler Factor
iOS Compass Heading
iOS Angle

Next 30 passes for location: Hong Kong

Rise time Rise Azimuth (degrees) Set time Set Azimuth (degrees) Duration Max altitude (degrees)

No matching passes for this satellites